Hourly Data Report for October 04, 2017

All times are specified in Local Standard Time (LST). Add 1 hour to adjust for Daylight Saving Time where and when it is observed.

KEJIMKUJIK 1
NOVA SCOTIA

44°24'11.020" N
65°12'11.070" W
125.00 m
8202592
71599
WKG

Download Data

Hourly Data (October 2017)
Hourly Data Report for October 4, 2017
Temp Definition
°C
Dew Point Temp Definition
°C
Rel Hum Definition
%
Wind Dir Definition
10's deg

Wind Spd Definition
km/h
Visibility Definition
km
Stn Press Definition
kPa
Hmdx Definition


Wind Chill Definition


Weather Definition


TIME
00:00 7.5 5.9 90 26 6   101.56     LegendNANA
01:00 7.5 6.0 90 24 9   101.52     LegendNANA
02:00 7.7 6.2 90 25 8   101.44     LegendNANA
03:00 7.3 5.9 91 25 6   101.36     LegendNANA
04:00 8.1 6.6 90 25 11   101.33     LegendNANA
05:00 7.9 6.6 91 25 9   101.28     LegendNANA
06:00 8.4 7.1 92 25 8   101.21     LegendNANA
07:00 9.0 7.9 93 25 10   101.17     LegendNANA
08:00 11.4 9.5 88 26 9   101.14     LegendNANA
09:00 13.9 10.3 79 27 10   101.10     LegendNANA
10:00 15.9 10.7 71 26 12   101.04     LegendNANA
11:00 17.8 10.8 63 27 12   100.96     LegendNANA
12:00 19.1 11.0 59 25 11   100.83     LegendNANA
13:00 19.5 10.9 58 26 14   100.71     LegendNANA
14:00 19.2 10.9 59 25 13   100.63     LegendNANA
15:00 19.2 11.0 59 25 14   100.59     LegendNANA
16:00 17.7 11.1 65 26 9   100.54     LegendNANA
17:00 15.6 11.0 74 27 9   100.48     LegendNANA
18:00 14.1 10.9 81 25 12   100.39     LegendNANA
19:00 13.1 10.9 87 24 10   100.35     LegendNANA
20:00 13.2 11.1 87 25 11   100.31     LegendNANA
21:00 13.4 11.3 87 26 10   100.29     LegendNANA
22:00 13.6 11.5 87 25 11   100.21     LegendNANA
23:00 13.7 11.9 89 24 13   100.10     LegendNANA

Notes on Data Quality.

Legend

  • E = Estimated
  • M = Missing
  • NA = Not Available
  • ‡ = Partner data that is not subject to review by the National Climate Archives
Date modified: